FW0201 Weather Reports


Display with metric or nautical units.
time (UTC)temp
F
wind
direction
speed
MPH
gust
MPH
rain 1hr
in
rain 24hr
in
rain mn
in
humidity
%
barometer
mb
20210730125411 66 169 3.0 5.0 0.00 0.00 0.00 77 1027.8
20210730124412 65 183 3.0 4.0 0.00 0.00 0.00 80 1027.8
20210730123509 64 158 3.0 4.0 0.00 0.00 0.00 81 1027.8
20210730122510 64 157 3.0 5.0 0.00 0.00 0.00 81 1027.6
20210730121610 64 159 3.0 5.0 0.00 0.00 0.00 81 1027.7
20210730121512 64 157 3.0 4.0 0.00 0.00 0.00 81 1027.7
20210730120609 64 171 4.0 5.0 0.00 0.00 0.00 81 1027.5
20210730115609 63 157 3.0 6.0 0.00 0.00 0.00 82 1027.5
20210730114610 63 171 4.0 6.0 0.00 0.00 0.00 82 1027.4
20210730113611 63 163 3.0 6.0 0.00 0.00 0.00 83 1027.5
20210730112609 62 157 2.0 5.0 0.00 0.00 0.00 84 1027.5
20210730111611 62 163 3.0 5.0 0.00 0.00 0.00 84 1027.5
20210730110610 62 157 2.0 4.0 0.00 0.00 0.00 83 1027.7
20210730105611 62 180 3.0 4.0 0.00 0.00 0.00 84 1027.8
20210730104610 62 157 1.0 1.0 0.00 0.00 0.00 83 1027.8
20210730103709 62 157 1.0 2.0 0.00 0.00 0.00 84 1027.8
20210730102710 62 157 1.0 2.0 0.00 0.00 0.00 82 1027.7
20210730101809 62 157 3.0 4.0 0.00 0.00 0.00 82 1027.5
20210730100810 62 157 3.0 6.0 0.00 0.00 0.00 82 1027.5
20210730095810 63 157 2.0 2.0 0.00 0.00 0.00 81 1027.3
20210730094811 63 157 2.0 4.0 0.00 0.00 0.00 79 1027.3
20210730093811 64 180 3.0 4.0 0.00 0.00 0.00 78 1027.4
20210730092909 64 157 3.0 4.0 0.00 0.00 0.00 77 1027.5
20210730092008 65 157 3.0 4.0 0.00 0.00 0.00 78 1027.4
20210730091912 65 157 2.0 3.0 0.00 0.00 0.00 78 1027.5
20210730091008 64 157 2.0 3.0 0.00 0.00 0.00 78 1027.5
20210730090009 64 157 0.0 0.0 0.00 0.00 0.00 78 1027.5
20210730085010 65 157 0.0 1.0 0.00 0.00 0.00 78 1027.5
20210730084010 65 157 1.0 2.0 0.00 0.00 0.00 77 1027.5
20210730083109 65 157 2.0 3.0 0.00 0.00 0.00 78 1027.3
20210730082113 64 157 2.0 3.0 0.00 0.00 0.00 79 1027.2
20210730082011 64 157 1.0 2.0 0.00 0.00 0.00 78 1027.0
20210730081009 64 157 2.0 4.0 0.00 0.00 0.00 79 1027.3
20210730080010 63 157 2.0 3.0 0.00 0.00 0.00 81 1027.5
20210730075011 63 157 1.0 2.0 0.00 0.00 0.00 80 1027.5
20210730074110 64 157 0.0 2.0 0.00 0.00 0.00 78 1027.5
20210730073110 64 157 0.0 2.0 0.00 0.00 0.00 78 1027.8
20210730072208 65 157 0.0 1.0 0.00 0.00 0.00 76 1027.8
20210730071211 66 157 1.0 2.0 0.00 0.00 0.00 74 1027.9
20210730070308 66 157 0.0 1.0 0.00 0.00 0.00 72 1027.9
20210730065312 67 157 1.0 2.0 0.00 0.00 0.00 70 1027.9
20210730065212 67 157 1.0 3.0 0.00 0.00 0.00 71 1027.9
20210730064308 68 157 1.0 2.0 0.00 0.00 0.00 68 1027.9
20210730063310 69 157 2.0 3.0 0.00 0.00 0.00 68 1028.0
20210730062311 69 157 2.0 5.0 0.00 0.00 0.00 67 1028.1
20210730061308 70 157 2.0 4.0 0.00 0.00 0.00 66 1027.8
20210730061210 70 157 2.0 4.0 0.00 0.00 0.00 65 1027.9
20210730060211 70 157 3.0 5.0 0.00 0.00 0.00 65 1027.9
20210730055217 71 164 3.0 5.0 0.00 0.00 0.00 65 1028.0
20210730054217 71 157 3.0 5.0 0.00 0.00 0.00 65 1028.0
20210730053217 71 157 3.0 6.0 0.00 0.00 0.00 64 1027.9
20210730052116 71 158 4.0 7.0 0.00 0.00 0.00 65 1027.8
20210730051116 70 163 3.0 6.0 0.00 0.00 0.00 66 1027.8
20210730050116 70 156 3.0 5.0 0.00 0.00 0.00 66 1027.9
20210730045118 69 149 3.0 6.0 0.00 0.00 0.00 68 1027.9
20210730044117 68 157 2.0 3.0 0.00 0.00 0.00 68 1027.8
20210730043117 68 157 2.0 4.0 0.00 0.00 0.00 68 1027.9
20210730042115 68 157 2.0 3.0 0.00 0.00 0.00 67 1027.8
20210730041116 69 157 1.0 3.0 0.00 0.00 0.00 67 1028.0
20210730040215 69 157 2.0 4.0 0.00 0.00 0.00 66 1027.9
20210730035219 69 157 2.0 3.0 0.00 0.00 0.00 65 1027.8
20210730035116 69 157 2.0 4.0 0.00 0.00 0.00 65 1027.9
20210730034119 70 157 2.0 4.0 0.00 0.00 0.00 65 1027.7
20210730033118 70 157 2.0 3.0 0.00 0.00 0.00 65 1027.7
20210730032120 70 157 0.0 0.0 0.00 0.00 0.00 63 1027.8
20210730031217 71 157 1.0 2.0 0.00 0.00 0.00 62 1027.4
20210730031118 71 157 0.0 2.0 0.00 0.00 0.00 62 1027.5
20210730030117 72 148 2.0 2.0 0.00 0.00 0.00 60 1027.3
20210730025117 72 112 1.0 2.0 0.00 0.00 0.00 58 1027.2
20210730024216 73 112 0.0 0.0 0.00 0.00 0.00 57 1027.1
20210730023216 75 112 3.0 3.0 0.00 0.00 0.00 54 1027.0
20210730022316 76 112 0.0 0.0 0.00 0.00 0.00 51 1026.9
20210730021318 78 112 4.0 5.0 0.00 0.00 0.00 47 1026.7
20210730021218 78 112 4.0 5.0 0.00 0.00 0.00 47 1026.8
20210730020217 80 112 3.0 4.0 0.00 0.00 0.00 43 1026.5
20210730015218 82 140 4.0 5.0 0.00 0.00 0.00 40 1026.5
20210730014216 84 148 3.0 4.0 0.00 0.00 0.00 37 1026.7
20210730013216 85 148 3.0 5.0 0.00 0.00 0.00 35 1026.5
20210730012218 86 155 4.0 6.0 0.00 0.00 0.00 35 1026.5
20210730011217 87 154 4.0 6.0 0.00 0.00 0.00 34 1026.5
20210730010217 88 152 5.0 7.0 0.00 0.00 0.00 31 1026.4
20210730005216 89 142 5.0 8.0 0.00 0.00 0.00 31 1026.3
20210730004316 89 154 5.0 10.0 0.00 0.00 0.00 31 1026.5
20210730004219 90 149 5.0 9.0 0.00 0.00 0.00 32 1026.5
20210730003316 90 154 5.0 10.0 0.00 0.00 0.00 30 1026.5
20210730002316 90 136 8.0 13.0 0.00 0.00 0.00 31 1026.4
20210730001316 91 148 6.0 10.0 0.00 0.00 0.00 29 1026.5
20210730000317 91 136 7.0 12.0 0.00 0.00 0.00 30 1026.3
20210729235317 92 114 9.0 13.0 0.00 0.00 0.00 29 1026.5
20210729234318 92 113 10.0 14.0 0.00 0.00 0.00 29 1026.7
20210729233316 92 114 11.0 14.0 0.00 0.00 0.00 28 1026.8
20210729232317 92 113 7.0 12.0 0.00 0.00 0.00 28 1026.8
20210729231317 92 114 8.0 12.0 0.00 0.00 0.00 28 1027.0
20210729230416 92 110 8.0 10.0 0.00 0.00 0.00 27 1027.1
20210729225416 92 118 8.0 13.0 0.00 0.00 0.00 27 1027.3
20210729224418 92 113 8.0 11.0 0.00 0.00 0.00 27 1027.3
20210729223416 94 108 9.0 13.0 0.00 0.00 0.00 25 1027.3
20210729222417 93 91 11.0 14.0 0.00 0.00 0.00 26 1027.3
20210729221418 93 112 9.0 12.0 0.00 0.00 0.00 26 1027.7
20210729220418 93 116 9.0 12.0 0.00 0.00 0.00 25 1027.6
20210729215418 93 100 7.0 10.0 0.00 0.00 0.00 26 1027.7
20210729214418 93 101 11.0 15.0 0.00 0.00 0.00 25 1027.6
20210729213516 93 112 10.0 14.0 0.00 0.00 0.00 26 1027.8
20210729212518 93 101 11.0 17.0 0.00 0.00 0.00 26 1027.8
20210729211518 93 87 10.0 16.0 0.00 0.00 0.00 28 1027.7
20210729211416 93 81 7.0 10.0 0.00 0.00 0.00 28 1027.8
20210729210417 93 112 12.0 16.0 0.00 0.00 0.00 28 1027.7
20210729205417 93 121 7.0 11.0 0.00 0.00 0.00 28 1027.8
20210729204416 93 103 7.0 11.0 0.00 0.00 0.00 28 1027.8
20210729203417 93 113 6.0 10.0 0.00 0.00 0.00 28 1027.7
20210729203315 93 95 10.0 15.0 0.00 0.00 0.00 29 1027.8
20210729202315 93 111 10.0 15.0 0.00 0.00 0.00 28 1027.8
20210729201317 93 112 6.0 14.0 0.00 0.00 0.00 28 1028.0
20210729200415 93 111 6.0 10.0 0.00 0.00 0.00 28 1028.1
20210729195416 92 124 8.0 11.0 0.00 0.00 0.00 30 1028.0
20210729195317 92 135 9.0 15.0 0.00 0.00 0.00 30 1028.1
20210729194415 92 112 11.0 16.0 0.00 0.00 0.00 30 1028.1
20210729193420 93 116 7.0 9.0 0.00 0.00 0.00 31 1028.2
20210729192515 92 168 3.0 4.0 0.00 0.00 0.00 30 1028.1
20210729191517 92 136 7.0 15.0 0.00 0.00 0.00 30 1028.3
20210729190515 92 112 4.0 6.0 0.00 0.00 0.00 29 1028.3
20210729185516 92 109 7.0 11.0 0.00 0.00 0.00 30 1028.3
20210729184517 92 111 11.0 15.0 0.00 0.00 0.00 30 1028.4
20210729183516 91 148 8.0 12.0 0.00 0.00 0.00 31 1028.5
20210729182518 91 114 10.0 13.0 0.00 0.00 0.00 30 1028.8
20210729181518 91 113 13.0 17.0 0.00 0.00 0.00 30 1028.7
20210729180519 91 113 10.0 15.0 0.00 0.00 0.00 31 1028.7
20210729175616 91 132 7.0 11.0 0.00 0.00 0.00 32 1028.7
20210729174618 91 175 4.0 7.0 0.00 0.00 0.00 33 1028.8
20210729173618 91 153 5.0 11.0 0.00 0.00 0.00 33 1028.8
20210729172615 91 121 8.0 11.0 0.00 0.00 0.00 33 1028.7
20210729171616 91 116 11.0 15.0 0.00 0.00 0.00 34 1028.8
20210729170715 90 136 5.0 9.0 0.00 0.00 0.00 35 1028.8
20210729165718 90 112 8.0 10.0 0.00 0.00 0.00 36 1028.8
20210729164718 89 178 7.0 13.0 0.00 0.00 0.00 35 1028.6
20210729163816 90 156 7.0 10.0 0.00 0.00 0.00 36 1028.7
20210729162815 89 163 6.0 9.0 0.00 0.00 0.00 36 1028.8
20210729161817 89 149 7.0 12.0 0.00 0.00 0.00 38 1028.8
20210729160817 88 148 5.0 9.0 0.00 0.00 0.00 40 1028.7
20210729155818 88 132 8.0 11.0 0.00 0.00 0.00 41 1028.5
20210729154916 87 143 8.0 15.0 0.00 0.00 0.00 43 1028.6
20210729153917 86 134 7.0 10.0 0.00 0.00 0.00 45 1028.7
20210729153819 86 131 7.0 11.0 0.00 0.00 0.00 45 1028.7
20210729152817 86 157 4.0 8.0 0.00 0.00 0.00 46 1028.5
20210729151816 85 148 5.0 9.0 0.00 0.00 0.00 49 1028.5
20210729150815 84 140 5.0 6.0 0.00 0.00 0.00 51 1028.5
20210729145815 83 156 3.0 5.0 0.00 0.00 0.00 54 1028.3
20210729144915 81 166 3.0 5.0 0.00 0.00 0.00 56 1028.3
20210729144818 81 165 3.0 7.0 0.00 0.00 0.00 56 1028.4
20210729143816 80 202 2.0 5.0 0.00 0.00 0.00 57 1028.3
20210729142816 79 169 3.0 6.0 0.00 0.00 0.00 60 1028.3
20210729141817 78 157 3.0 4.0 0.00 0.00 0.00 61 1028.3
20210729141717 78 157 3.0 5.0 0.00 0.00 0.00 61 1028.3
20210729140715 76 166 3.0 5.0 0.00 0.00 0.00 66 1028.3
20210729135719 75 202 4.0 6.0 0.00 0.00 0.00 68 1028.3
20210729134816 73 195 3.0 5.0 0.00 0.00 0.00 72 1028.2
20210729134717 73 169 4.0 6.0 0.00 0.00 0.00 72 1028.3
20210729133716 72 180 3.0 4.0 0.00 0.00 0.00 75 1028.3
20210729132718 70 202 3.0 4.0 0.00 0.00 0.00 78 1028.0
20210729131716 69 180 4.0 5.0 0.00 0.00 0.00 82 1028.1
20210729130715 67 202 4.0 5.0 0.00 0.00 0.00 84 1027.9